K3TOW Weather Reports


Display with metric or nautical units.
time (UTC)temp
F
wind
direction
speed
MPH
gust
MPH
rain 1hr
in
rain 24hr
in
rain mn
in
humidity
%
barometer
mb
20260507151003 56 338 2.0 5.0 0.00 0.14 0.00 49 1009.4
20260507150003 57 99 1.0 4.0 0.00 0.16 0.00 49 1009.4
20260507145003 56 287 1.0 6.0 0.00 0.17 0.00 52 1009.5
20260507144003 56 343 1.0 4.0 0.00 0.19 0.00 53 1009.6
20260507143003 55 298 0.0 3.0 0.00 0.20 0.00 55 1009.8
20260507142003 55 0 0.0 0.0 0.00 0.22 0.00 60 1009.9
20260507141003 54 308 0.0 3.0 0.00 0.23 0.00 62 1009.9
20260507140004 53 302 1.0 4.0 0.00 0.25 0.00 61 1010.0
20260507135003 53 291 1.0 6.0 0.00 0.27 0.00 63 1010.2
20260507134213 52 309 0.0 2.0 0.00 0.27 0.00 65 1010.4
20260507133003 51 0 0.0 0.0 0.00 0.29 0.00 68 1010.5
20260507132212 50 292 0.0 1.0 0.00 0.30 0.00 70 1010.4
20260507131003 49 298 0.0 3.0 0.00 0.32 0.00 73 1010.5
20260507130003 48 309 1.0 3.0 0.00 0.33 0.00 74 1010.5
20260507125003 47 324 1.0 3.0 0.00 0.35 0.00 77 1010.5
20260507124212 46 353 0.0 2.0 0.00 0.36 0.00 78 1010.5
20260507123003 46 328 1.0 4.0 0.00 0.38 0.00 78 1010.4
20260507122003 45 303 0.0 3.0 0.00 0.38 0.00 81 1010.4
20260507121003 45 267 0.0 3.0 0.00 0.38 0.00 83 1010.3
20260507120214 44 271 1.0 4.0 0.00 0.39 0.00 84 1010.3
20260507115003 43 0 0.0 0.0 0.00 0.39 0.00 91 1010.3
20260507114003 43 0 0.0 0.0 0.00 0.39 0.00 91 1010.2
20260507113003 42 0 0.0 0.0 0.00 0.39 0.00 93 1010.2
20260507112003 42 0 0.0 0.0 0.00 0.39 0.00 94 1010.1
20260507111214 41 0 0.0 0.0 0.00 0.39 0.00 94 1010.1
20260507110003 41 0 0.0 0.0 0.00 0.39 0.00 94 1010.1
20260507105003 41 0 0.0 0.0 0.00 0.39 0.00 94 1010.0
20260507104003 41 0 0.0 0.0 0.00 0.39 0.00 93 1010.0
20260507103003 41 0 0.0 0.0 0.00 0.39 0.00 93 1009.9
20260507102003 42 0 0.0 0.0 0.00 0.39 0.00 93 1009.7
20260507101003 42 0 0.0 0.0 0.00 0.39 0.00 93 1009.6
20260507100004 43 199 0.0 4.0 0.00 0.39 0.00 93 1009.5
20260507095003 43 63 0.0 1.0 0.00 0.39 0.00 93 1009.4
20260507094003 43 63 0.0 1.0 0.00 0.39 0.00 92 1009.3
20260507093003 44 63 0.0 1.0 0.00 0.39 0.00 92 1009.2
20260507092213 45 0 0.0 0.0 0.00 0.39 0.00 92 1009.2
20260507091003 45 63 0.0 1.0 0.00 0.39 0.00 92 1009.2
20260507090004 46 63 0.0 2.0 0.00 0.39 0.00 91 1009.1
20260507085003 46 64 0.0 2.0 0.00 0.39 0.00 90 1008.9
20260507084213 46 314 0.0 2.0 0.00 0.39 0.00 92 1008.8
20260507083004 46 267 1.0 4.0 0.00 0.39 0.00 92 1008.8
20260507082003 46 0 0.0 0.0 0.00 0.39 0.00 93 1008.9
20260507081003 46 0 0.0 0.0 0.00 0.39 0.00 93 1009.0
20260507080213 46 0 0.0 0.0 0.00 0.39 0.00 93 1008.9
20260507075003 46 0 0.0 0.0 0.00 0.39 0.00 93 1009.2
20260507074003 47 0 0.0 0.0 0.00 0.39 0.00 92 1009.2
20260507073004 47 296 0.0 5.0 0.00 0.39 0.00 94 1009.3
20260507072003 48 0 0.0 0.0 0.00 0.39 0.00 95 1009.3
20260507071003 48 0 0.0 0.0 0.00 0.39 0.00 95 1009.4
20260507070004 48 0 0.0 0.0 0.00 0.39 0.00 95 1009.4
20260507065214 48 0 0.0 0.0 0.00 0.39 0.00 95 1009.4
20260507064003 48 0 0.0 0.0 0.00 0.39 0.00 95 1009.4
20260507063003 48 0 0.0 0.0 0.00 0.39 0.00 95 1009.3
20260507062003 48 0 0.0 0.0 0.00 0.39 0.00 95 1009.1
20260507061003 48 0 0.0 0.0 0.00 0.39 0.00 95 1009.1
20260507060003 48 0 0.0 0.0 0.00 0.39 0.00 94 1009.0
20260507055003 48 0 0.0 0.0 0.00 0.39 0.00 94 1009.0
20260507054003 49 0 0.0 0.0 0.00 0.39 0.00 95 1009.0
20260507053004 49 0 0.0 0.0 0.00 0.39 0.00 95 1008.8
20260507052003 49 0 0.0 0.0 0.00 0.39 0.00 94 1008.8
20260507051214 49 0 0.0 0.0 0.00 0.39 0.00 94 1008.7
20260507050213 49 0 0.0 0.0 0.00 0.39 0.00 95 1008.9
20260507045003 49 0 0.0 0.0 0.00 0.39 0.00 94 1008.7
20260507044213 49 0 0.0 0.0 0.00 0.39 0.00 94 1008.7
20260507043213 49 0 0.0 0.0 0.00 0.39 0.00 94 1008.7
20260507042003 49 0 0.0 0.0 0.00 0.39 0.00 94 1008.7
20260507041213 49 0 0.0 0.0 0.00 0.39 0.00 94 1008.9
20260507040004 50 0 0.0 0.0 0.00 0.39 0.00 94 1008.9
20260507035003 50 0 0.0 0.0 0.00 0.39 0.39 93 1009.3
20260507034003 50 0 0.0 0.0 0.00 0.39 0.39 93 1009.1
20260507033003 50 0 0.0 0.0 0.00 0.39 0.39 93 1009.0
20260507032003 50 0 0.0 0.0 0.00 0.39 0.39 93 1009.0
20260507031003 50 0 0.0 0.0 0.00 0.39 0.39 93 1008.5
20260507030003 50 0 0.0 0.0 0.00 0.39 0.39 93 1008.4
20260507025213 50 0 0.0 0.0 0.00 0.39 0.39 93 1008.9
20260507024003 50 0 0.0 0.0 0.00 0.39 0.39 93 1008.8
20260507023003 51 0 0.0 0.0 0.00 0.39 0.39 93 1009.2
20260507022003 50 0 0.0 0.0 0.00 0.39 0.39 93 1009.3
20260507021003 50 0 0.0 0.0 0.00 0.39 0.39 92 1009.4
20260507020003 51 0 0.0 0.0 0.00 0.39 0.39 92 1009.2
20260507015003 51 0 0.0 0.0 0.00 0.39 0.39 91 1009.6
20260507014003 51 0 0.0 0.0 0.00 0.39 0.39 91 1009.4
20260507013214 51 0 0.0 0.0 0.00 0.39 0.39 91 1009.6
20260507012003 51 0 0.0 0.0 0.00 0.39 0.39 90 1009.7
20260507011003 51 0 0.0 0.0 0.00 0.39 0.39 90 1009.1
20260507010004 51 0 0.0 0.0 0.00 0.39 0.39 91 1009.1
20260507005214 51 0 0.0 0.0 0.00 0.39 0.39 91 1009.1
20260507004003 51 0 0.0 0.0 0.00 0.39 0.39 90 1008.9
20260507003003 51 0 0.0 0.0 0.00 0.39 0.39 90 1008.7
20260507002214 51 0 0.0 0.0 0.00 0.39 0.39 90 1008.5
20260507001003 52 0 0.0 0.0 0.00 0.39 0.39 90 1008.3
20260507000003 52 193 0.0 2.0 0.00 0.39 0.39 89 1008.2
20260506235003 52 184 1.0 5.0 0.00 0.39 0.39 88 1007.8
20260506234214 52 252 1.0 5.0 0.00 0.39 0.39 88 1007.8
20260506233003 52 237 1.0 5.0 0.00 0.39 0.39 89 1007.7
20260506232003 52 310 1.0 4.0 0.01 0.39 0.39 89 1007.7
20260506231003 53 290 1.0 4.0 0.01 0.39 0.39 89 1007.5
20260506230003 53 264 1.0 4.0 0.01 0.39 0.39 89 1007.3
20260506225003 53 228 2.0 5.0 0.01 0.39 0.39 89 1007.1
20260506224213 54 302 2.0 5.0 0.01 0.39 0.39 89 1007.0
20260506223003 56 242 1.0 9.0 0.01 0.39 0.39 89 1006.7
20260506222003 56 292 1.0 7.0 0.00 0.38 0.38 88 1006.4
20260506221213 57 264 2.0 9.0 0.00 0.38 0.38 87 1006.1
20260506220003 59 302 4.0 11.0 0.00 0.38 0.38 85 1005.4
20260506215213 62 302 4.0 11.0 0.00 0.38 0.38 86 1005.1
20260506214003 64 25 1.0 6.0 0.00 0.38 0.38 91 1004.6
20260506213003 64 57 1.0 3.0 0.00 0.38 0.38 91 1004.4
20260506212003 64 2 1.0 5.0 0.00 0.38 0.38 90 1004.2
20260506211003 64 3 1.0 2.0 0.00 0.38 0.38 91 1004.0
20260506210003 64 16 0.0 4.0 0.00 0.38 0.38 91 1003.9
20260506205003 64 50 1.0 3.0 0.00 0.38 0.38 92 1003.8
20260506204003 64 48 1.0 4.0 0.00 0.38 0.38 92 1003.8
20260506203003 64 16 2.0 5.0 0.00 0.38 0.38 92 1003.7
20260506202003 64 74 1.0 7.0 0.00 0.38 0.38 92 1003.7
20260506201003 64 19 1.0 5.0 0.00 0.38 0.38 92 1003.7
20260506200003 63 9 1.0 4.0 0.00 0.38 0.38 93 1003.7
20260506195003 63 0 0.0 0.0 0.00 0.38 0.38 94 1003.9
20260506194003 63 0 0.0 0.0 0.00 0.38 0.38 94 1003.9
20260506193003 63 0 0.0 0.0 0.00 0.38 0.38 94 1004.0
20260506192003 63 344 0.0 3.0 0.00 0.38 0.38 94 1004.0
20260506191003 63 7 1.0 8.0 0.00 0.38 0.38 94 1004.2
20260506190214 63 57 1.0 6.0 0.00 0.38 0.38 94 1004.1
20260506185214 62 357 1.0 6.0 0.00 0.38 0.38 95 1004.1
20260506184003 62 18 1.0 3.0 0.01 0.38 0.38 95 1004.1
20260506183003 62 15 1.0 6.0 0.01 0.38 0.38 95 1004.4
20260506182003 62 8 1.0 4.0 0.01 0.38 0.38 95 1004.5
20260506181003 61 0 0.0 0.0 0.02 0.38 0.38 95 1004.5
20260506180004 61 0 0.0 0.0 0.03 0.38 0.38 96 1004.5
20260506175003 61 40 0.0 4.0 0.03 0.38 0.38 95 1004.5
20260506174003 61 0 0.0 0.0 0.02 0.37 0.37 95 1004.5
20260506173213 61 0 0.0 0.0 0.02 0.37 0.37 95 1004.6
20260506172003 61 0 0.0 0.0 0.03 0.37 0.37 96 1004.6
20260506171003 60 0 0.0 0.0 0.03 0.36 0.36 95 1004.6
20260506170003 60 0 0.0 0.0 0.03 0.35 0.35 95 1004.6
20260506165003 60 0 0.0 0.0 0.03 0.35 0.35 95 1004.7
20260506164003 60 0 0.0 0.0 0.04 0.35 0.35 95 1004.6
20260506163003 60 0 0.0 0.0 0.06 0.35 0.35 94 1004.6
20260506162003 61 0 0.0 0.0 0.06 0.34 0.34 95 1004.6
20260506161213 61 0 0.0 0.0 0.08 0.34 0.34 95 1004.6
20260506160003 60 0 0.0 0.0 0.09 0.32 0.32 95 1004.5
20260506155003 60 0 0.0 0.0 0.10 0.32 0.32 95 1004.6
20260506154003 60 0 0.0 0.0 0.11 0.31 0.31 95 1004.6
20260506153003 60 0 0.0 0.0 0.10 0.29 0.29 94 1004.9
20260506152003 60 5 0.0 8.0 0.11 0.28 0.28 94 1004.9